Rochester, MN

8:04 PM CST on February 09, 2016 (GMT -0600)
Rochester/St. Mary\'s Hospita

Weather History for K9MN - January, 2014

Change the Weather History Date:

Friday, January 24, 2014

  Actual Average (KRST) Record (KRST)
Temperature  
Mean Temperature 16 °F 16 °F  
Max Temperature 32 °F 24 °F 55 °F (1981)
Min Temperature 1 °F 8 °F -34 °F (1935)
Degree Days  
Heating Degree Days 48 49  
Month to date heating degree days 1189  
Since 1 July heating degree days 4267  
Cooling Degree Days 0 0  
Month to date cooling degree days 0  
Year to date cooling degree days 0  
Moisture  
Dew Point 12 °F    
Average Humidity 68    
Maximum Humidity 96    
Minimum Humidity 49    
Precipitation  
Precipitation 0.00 in 0.02 in 1.42 in (1967)
Month to date precipitation 0.66  
Year to date precipitation 0.66  
Snow  
Snow 0.00 in 0.40 in 5.40 in (1997)
Month to date snowfall 9.1  
Since 1 July snowfall 28.5  
Snow Depth -    
Sea Level Pressure  
Sea Level Pressure 29.70 in    
Wind  
Wind Speed 17 mph (WSW)    
Max Wind Speed 28 mph    
Max Gust Speed 38 mph    
Visibility 9 miles    
Events      
T = Trace of Precipitation, MM = Missing Value Source: NWS Daily Summary

Daily Weather History Graph

Daily Weather History Graph

Search for Another Location

Airport or City:

Trip Planner

Search our weather history database for the weather conditions in past years. The results will help you decide how hot, cold, wet, or windy it might be!

Date:

Astronomy

Jan. 24, 2014 Rise Set
Actual Time 7:35 AM CST 5:09 PM CST
Civil Twilight 7:03 AM CST 5:40 PM CST
Nautical Twilight 6:28 AM CST 6:15 PM CST
Astronomical Twilight 5:54 AM CST 6:50 PM CST
Moon 12:59 AM CST (1/24) 11:30 AM CST (1/24)
Length of Visible Light 10h 36m
Length of Day
9h 34m
Last Quarter, 44% of the Moon is Illuminated
Jan 24
Last Quarter
Jan 30
New
Feb 6
First Quarter
Feb 14
Full
Feb 22
Last Quarter

Hourly Weather History & Observations

Time (CST) Temp. Windchill Dew Point Humidity Pressure Visibility Wind Dir Wind Speed Gust Speed Precip Events Conditions
12:13 AM 1.0 °F -18.7 °F -9.0 °F 63% 30.25 in 10.0 mi SSW 16.1 mph 25.3 mph N/A   Clear
12:33 AM 1.8 °F -17.1 °F -9.2 °F 60% 30.22 in 10.0 mi SSW 15.0 mph 27.6 mph N/A   Clear
12:53 AM 3.2 °F -18.1 °F -9.0 °F 57% 30.20 in 10.0 mi South 20.7 mph 28.8 mph N/A   Clear
1:13 AM 3.7 °F -17.4 °F -9.4 °F 55% 30.16 in 10.0 mi SSW 20.7 mph 33.4 mph N/A   Clear
1:33 AM 5.0 °F -14.7 °F -9.2 °F 52% 30.14 in 10.0 mi SSW 18.4 mph 33.4 mph N/A   Clear
1:53 AM 5.9 °F -13.0 °F -9.2 °F 50% 30.12 in 10.0 mi SSW 17.3 mph 33.4 mph N/A   Clear
2:13 AM 6.3 °F -14.1 °F -9.2 °F 49% 30.11 in 10.0 mi SSW 20.7 mph 34.5 mph N/A   Clear
2:33 AM 6.3 °F -14.5 °F -9.0 °F 50% 30.08 in 10.0 mi SSW 21.9 mph 31.1 mph N/A   Clear
2:53 AM 6.3 °F -13.6 °F -8.3 °F 51% 30.05 in 10.0 mi South 19.6 mph 29.9 mph N/A   Clear
3:13 AM 6.4 °F -14.3 °F -8.1 °F 51% 30.02 in 10.0 mi SSW 21.9 mph 34.5 mph N/A   Clear
3:33 AM 7.3 °F -14.8 °F -7.8 °F 50% 30.00 in 10.0 mi SSW 26.5 mph 36.8 mph N/A   Scattered Clouds
3:53 AM 7.7 °F -14.7 °F -7.2 °F 51% 29.98 in 10.0 mi SSW 27.6 mph 35.7 mph N/A   Mostly Cloudy
4:13 AM 8.1 °F -12.6 °F -6.3 °F 52% 29.96 in 10.0 mi SSW 23.0 mph 38.0 mph N/A   Overcast
4:33 AM 8.2 °F -12.8 °F -5.6 °F 53% 29.94 in 10.0 mi SSW 24.2 mph 33.4 mph N/A   Overcast
4:53 AM 9.0 °F -10.0 °F -4.4 °F 55% 29.92 in 10.0 mi SSW 19.6 mph 31.1 mph N/A   Overcast
5:13 AM 10.2 °F -8.4 °F -3.1 °F 55% 29.90 in 10.0 mi SSW 19.6 mph 33.4 mph N/A   Overcast
5:33 AM 12.0 °F -7.3 °F -1.8 °F 54% 29.86 in 10.0 mi SSW 23.0 mph 35.7 mph N/A   Overcast
5:53 AM 12.6 °F -5.3 °F -0.8 °F 55% 29.86 in 10.0 mi SW 19.6 mph 35.7 mph N/A   Overcast
6:13 AM 12.4 °F -6.4 °F -0.8 °F 56% 29.83 in 10.0 mi SSW 21.9 mph 35.7 mph N/A   Overcast
6:33 AM 12.9 °F -4.9 °F 0.3 °F 57% 29.85 in 10.0 mi SSW 19.6 mph 36.8 mph N/A   Overcast
6:53 AM 13.3 °F -2.4 °F 0.9 °F 58% 29.85 in 10.0 mi SW 15.0 mph 27.6 mph N/A   Overcast
7:13 AM 14.0 °F 0.5 °F 2.3 °F 60% 29.84 in 10.0 mi SW 11.5 mph 21.9 mph N/A   Overcast
7:33 AM 14.5 °F -0.2 °F 2.8 °F 60% 29.82 in 10.0 mi SW 13.8 mph 21.9 mph N/A   Overcast
7:53 AM 15.1 °F 0.5 °F 3.2 °F 59% 29.80 in 10.0 mi SW 13.8 mph 25.3 mph N/A   Overcast
8:13 AM 15.8 °F -0.2 °F 3.6 °F 59% 29.78 in 10.0 mi SW 17.3 mph 28.8 mph N/A   Overcast
8:33 AM 16.2 °F 0.3 °F 4.1 °F 59% 29.77 in 10.0 mi SW 17.3 mph 32.2 mph N/A   Overcast
8:53 AM 16.7 °F 3.2 °F 5.0 °F 60% 29.78 in 10.0 mi WSW 12.7 mph 27.6 mph N/A   Overcast
9:13 AM 17.6 °F 3.2 °F 5.9 °F 60% 29.76 in 10.0 mi SW 15.0 mph 27.6 mph N/A   Overcast
9:33 AM 18.3 °F 5.2 °F 6.6 °F 60% 29.75 in 10.0 mi SW 12.7 mph 19.6 mph N/A   Overcast
9:53 AM 18.9 °F 7.2 °F 7.2 °F 60% 29.74 in 10.0 mi SW 10.4 mph 19.6 mph N/A   Overcast
10:13 AM 20.3 °F 9.0 °F 8.4 °F 60% 29.74 in 10.0 mi SW 10.4 mph 21.9 mph N/A   Overcast
10:33 AM 21.6 °F 8.8 °F 9.5 °F 60% 29.73 in 10.0 mi WSW 13.8 mph 20.7 mph N/A   Overcast
10:53 AM 22.1 °F 9.5 °F 9.7 °F 59% 29.71 in 10.0 mi SW 13.8 mph 21.9 mph N/A   Overcast
11:13 AM 23.0 °F 11.1 °F 10.2 °F 58% 29.70 in 10.0 mi SW 12.7 mph 24.2 mph N/A   Overcast
11:33 AM 24.1 °F 11.5 °F 11.7 °F 59% 29.68 in 10.0 mi WSW 15.0 mph 23.0 mph N/A   Overcast
11:53 AM 25.2 °F 13.9 °F 12.6 °F 59% 29.67 in 10.0 mi WSW 12.7 mph 24.2 mph N/A   Overcast
12:13 PM 25.5 °F 14.3 °F 13.5 °F 60% 29.65 in 10.0 mi WSW 12.7 mph 20.7 mph N/A   Overcast
12:33 PM 26.4 °F 14.5 °F 14.5 °F 61% 29.64 in 10.0 mi WSW 15.0 mph 20.7 mph N/A   Overcast
12:53 PM 27.0 °F 14.7 °F 15.4 °F 62% 29.61 in 10.0 mi WSW 16.1 mph 23.0 mph N/A   Overcast
1:13 PM 27.7 °F 18.8 °F 16.9 °F 64% 29.59 in 10.0 mi WSW 9.2 mph 27.6 mph N/A   Overcast
1:33 PM 28.4 °F 16.2 °F 18.0 °F 65% 29.57 in 10.0 mi WSW 17.3 mph 26.5 mph N/A   Overcast
1:53 PM 29.3 °F 17.7 °F 18.9 °F 65% 29.55 in 10.0 mi WSW 16.1 mph 25.3 mph N/A   Scattered Clouds
2:13 PM 29.5 °F 18.0 °F 19.6 °F 67% 29.53 in 10.0 mi WSW 16.1 mph 27.6 mph N/A   Scattered Clouds
2:33 PM 30.0 °F 18.7 °F 20.5 °F 68% 29.54 in 10.0 mi WSW 16.1 mph 27.6 mph N/A   Mostly Cloudy
2:53 PM 30.7 °F 20.0 °F 21.7 °F 69% 29.53 in 10.0 mi WSW 15.0 mph 27.6 mph N/A   Mostly Cloudy
3:13 PM 31.1 °F 20.1 °F 22.3 °F 70% 29.53 in 10.0 mi West 16.1 mph 24.2 mph N/A   Overcast
3:33 PM 31.3 °F 19.9 °F 23.0 °F 71% 29.52 in 10.0 mi WSW 17.3 mph 27.6 mph N/A   Overcast
3:53 PM 31.5 °F 19.8 °F 23.5 °F 73% 29.51 in 10.0 mi West 18.4 mph 29.9 mph N/A   Overcast
4:13 PM 31.6 °F 20.7 °F 23.9 °F 73% 29.52 in 10.0 mi West 16.1 mph 26.5 mph N/A   Overcast
4:33 PM 31.6 °F 20.7 °F 24.3 °F 74% 29.51 in 10.0 mi West 16.1 mph 25.3 mph N/A   Overcast
4:53 PM 31.8 °F 22.3 °F 24.8 °F 75% 29.50 in 10.0 mi West 12.7 mph 25.3 mph N/A   Overcast
5:13 PM 30.9 °F 20.7 °F 26.4 °F 83% 29.49 in 1.2 mi WSW 13.8 mph 21.9 mph N/A   Overcast
5:33 PM 30.7 °F 21.4 °F 28.4 °F 91% 29.48 in 1.8 mi WSW 11.5 mph 21.9 mph N/A   Overcast
5:53 PM 31.1 °F 20.5 °F 29.3 °F 93% 29.47 in 2.0 mi WSW 15.0 mph 23.0 mph N/A   Overcast
6:13 PM 31.8 °F 21.4 °F 30.2 °F 94% 29.47 in 2.5 mi WSW 15.0 mph 26.5 mph N/A   Overcast
6:33 PM 32.0 °F 20.8 °F 30.6 °F 94% 29.47 in 1.5 mi WSW 17.3 mph 28.8 mph N/A   Overcast
6:53 PM 32.0 °F 21.2 °F 30.9 °F 96% 29.47 in 2.0 mi West 16.1 mph 23.0 mph N/A   Overcast
7:13 PM 32.0 °F 22.5 °F 31.1 °F 96% 29.47 in 4.0 mi West 12.7 mph 19.6 mph N/A   Overcast
7:33 PM 32.2 °F 23.8 °F 31.3 °F 96% 29.47 in 4.0 mi West 10.4 mph 18.4 mph N/A   Overcast
7:53 PM 32.4 °F 22.1 °F 31.5 °F 96% 29.46 in 7.0 mi West 15.0 mph 21.9 mph N/A   Overcast
8:13 PM 32.7 °F 22.1 °F 31.1 °F 94% 29.46 in 7.0 mi West 16.1 mph 21.9 mph N/A   Overcast
8:33 PM 32.9 °F 23.2 °F 31.5 °F 94% 29.45 in 10.0 mi WNW 13.8 mph 23.0 mph N/A   Overcast
8:53 PM 32.4 °F 20.6 °F 30.7 °F 94% 29.45 in 7.0 mi WNW 19.6 mph 25.3 mph N/A   Overcast
9:13 PM 32.0 °F 20.5 °F 30.7 °F 95% 29.45 in 7.0 mi WNW 18.4 mph 23.0 mph N/A   Overcast
9:33 PM 32.4 °F 20.6 °F 30.0 °F 91% 29.45 in 10.0 mi WNW 19.6 mph 27.6 mph N/A   Overcast
9:53 PM 32.4 °F 20.9 °F 28.4 °F 85% 29.46 in 10.0 mi WNW 18.4 mph 29.9 mph N/A   Overcast
10:13 PM 32.0 °F 20.8 °F 25.5 °F 77% 29.46 in 10.0 mi WNW 17.3 mph 28.8 mph N/A   Overcast
10:33 PM 32.0 °F 19.2 °F 25.5 °F 77% 29.46 in 10.0 mi WNW 23.0 mph 32.2 mph N/A   Overcast
10:53 PM 32.0 °F 18.9 °F 23.4 °F 70% 29.47 in 10.0 mi WNW 24.2 mph 32.2 mph N/A   Overcast
11:13 PM 31.5 °F 18.8 °F 22.3 °F 69% 29.47 in 10.0 mi WNW 21.9 mph 32.2 mph N/A   Overcast
11:33 PM 30.7 °F 18.8 °F 20.5 °F 66% 29.48 in 10.0 mi WNW 18.4 mph 33.4 mph N/A   Mostly Cloudy
11:53 PM 29.7 °F 17.8 °F 19.4 °F 66% 29.49 in 10.0 mi WNW 17.3 mph 36.8 mph N/A   Scattered Clouds